Flag for Papua New Guinea Weather past 2 weeks in Lae, Papua New Guinea

Now
88 °F

Passing clouds.


Feels Like: 93 °F
Forecast: 68 / 88 °F
Wind: 12 mph from South

Location: Moresby

Current Time: Sep 1, 2015 at 2:21:36 PM

Latest Report: Sep 1, 2015 at 1:00 PM


Visibility: N/A

Pressure: 29.86 "Hg

Humidity: 55%

Dew point: 70 °F

Location of LaeLocation

Historic Weather in Lae — Graph

°F

Lae temperature yesterday

Maximum temperature yesterday: 88 °F (at 11:00 AM)
Minimum temperature yesterday: 77 °F (at 8:00 AM)
Average temperature yesterday: 81 °F

Past Weeks' High & Low Weather Summary

 TemperatureHumidityPressure
High88 °F (Aug 28, 11:00 AM)100% (Aug 27, 4:00 PM)29.95 "Hg (Aug 27, 4:00 PM)
Low36 °F (Aug 27, 4:00 PM)48% (Aug 19, 8:00 AM)29.80 "Hg (Aug 27, 3:00 PM)
Average78 °F75%29.89 "Hg
* Reported Aug 17 12:00 Noon — Sep 1 12:00 Noon, Lae, Weather by CustomWeather, © 2015

Note: Actual official high and low records may vary slightly from our data, if they occured in-between our weather recording intervals... More about our weather records

Advertising

Lae weather history for previous 24 hours

 ConditionsComfort  
Time TempWeatherWind HumidityBarometerVisibility
12:00 PM
Tue, Sep 1
88 °FPassing clouds.9 mph59%29.89 "HgN/A
9:00 AM79 °FBroken clouds.12 mph74%29.95 "HgN/A
8:00 AM77 °FMore clouds than sun.12 mph79%29.95 "HgN/A
7:00 AM75 °FMore clouds than sun.No wind83%29.92 "HgN/A
6:00 AM75 °FMostly cloudy.No wind83%29.89 "HgN/A
4:00 AM75 °FMostly cloudy.2 mph83%29.89 "HgN/A
3:00 AM75 °FMostly cloudy.3 mph83%29.89 "HgN/A
2:00 AM75 °FOvercast.3 mph83%29.89 "HgN/A
1:00 AM75 °FOvercast.3 mph83%29.92 "HgN/A
12:00 AM77 °FOvercast.3 mph79%29.92 "HgN/A
10:00 PM
Mon, Aug 31
77 °FPassing clouds.14 mph79%29.92 "HgN/A
9:00 PM77 °FPassing clouds.14 mph79%29.92 "HgN/A
8:00 PM77 °FPassing clouds.12 mph83%29.89 "HgN/A
7:00 PM77 °FPassing clouds.12 mph79%29.86 "HgN/A
6:00 PM77 °FScattered clouds.12 mph74%29.86 "HgN/A
5:00 PM82 °FScattered clouds.N/A66%29.83 "HgN/A
4:00 PM82 °FScattered clouds.N/A66%29.83 "HgN/A
2:00 PM84 °FPartly sunny.16 mph66%29.86 "HgN/A
Weather by CustomWeather, © 2015

See weather overviewHow to use our weather pages